Location: Karcze
(52.0945°N, 22.4786°E)
Time: 07:38:26
(UTC+00:00)

Transit 2A Rocket - Pass Details

Date: 02 August 2021
Orbit: 586 x 917 km, 66.7° (Epoch: 24 September)

Event Time Altitude Azimuth Distance (km) Brightness Sun altitude
Rises 16:37:34 0° 301° (WNW) 3,052 9.6 13.6°
Reaches altitude 10° 16:40:43 10° 324° (NW) 2,204 8.3 13.1°
Maximum altitude 16:43:49 16° 2° (N) 1,885 7.3 12.7°
Drops below altitude 10° 16:47:05 10° 40° (NE) 2,343 7.3 12.2°
Sets 16:50:36 0° 61° (ENE) 3,347 7.9 11.6°
